User: anonymous   Login
Location: Brno
(49.2000°N, 16.6330°E)
Time: 17:38:17
(UTC+01:00)
Language:

BREEZE M DEB (TANK) - Orbit

View from above orbital plane
View from above orbital plane
View from above satellite
View from above satellite

Ground track
Ground track

The orbit data is extracted from the following two-line orbital elements,

1 28359U 04022B   15057.70227149  .00008468  00000-0  98569-3 0  9991
2 28359 049.5166 163.6303 4708053 235.3681 328.5873 06.13631248233296
Epoch (UTC): 26 February 2015 16:51:16
Eccentricity: 0.4708053
inclination: 49.5166°
perigee height: 291 km
apogee height: 12158 km
right ascension of ascending node: 163.6303°
argument of perigee: 235.3681°
revolutions per day: 6.13631248
mean anomaly at epoch: 328.5873°
orbit number at epoch: 23329

The dashed part of the orbit path shows where the satellite is in the earth's shadow,  

DLR